Regional Weather Roundup
Issued by NWS

Home | Current Version | Previous Version | Graphics & Text | Print | Product List | Glossary On
Versions: 1 2 3 4 5 6 7 8 9 10 11 12 13 14 15 16 17 18 19 20 21 22 23 24 25 26 27 28 29 30 31 32 33 34 35 36 37 38 39 40 41 42 43 44 45 46 47 48 49 50
000
ASUS43 KOAX 020202
RWRNE

WEATHER ROUNDUP FOR NEBRASKA
NATIONAL WEATHER SERVICE OMAHA NE
900 PM CDT TUE SEP 01 2015

NOTES: SATELLITE DATA IS BEING USED TO AUGMENT CLOUD COVER ABOVE
       12000 FEET.
       "FAIR" INDICATES FEW OR NO CLOUDS BELOW 12,000 FEET WITH NO
       SIGNIFICANT WEATHER AND/OR OBSTRUCTIONS TO VISIBILITY.

  * THESE STATIONS DO NOT REPORT WEATHER SUCH AS RAIN...SNOW OR FOG.

NEZ001>004-019>022-054>056-020300-
NEBRASKA PANHANDLE

CITY           SKY/WX    TMP DP  RH WIND       PRES   REMARKS
SCOTTSBLUFF    CLEAR     73  56  54 E7        29.92R
ALLIANCE       CLEAR     70  47  43 S8        29.91R
CHADRON        CLEAR     76  48  37 S5        29.84R
KIMBALL        PTCLDY    70  47  43 SE7       29.99R
SIDNEY         CLEAR     71  40  32 S8        29.97R
$$

NEZ057>060-069>072-079>082-020300-
SOUTHWEST NEBRASKA

CITY           SKY/WX    TMP DP  RH WIND       PRES   REMARKS
NORTH PLATTE   CLEAR     72  67  84 E8        29.89R
IMPERIAL       CLEAR     74  55  51 S6        29.92R
MCCOOK         CLEAR     81  58  45 E5        29.90R
$$

NEZ005>010-023>029-035>040-094-020300-
NORTH CENTRAL NEBRASKA

CITY           SKY/WX    TMP DP  RH WIND       PRES   REMARKS
VALENTINE      CLEAR     81  60  48 S14       29.84R
AINSWORTH      CLEAR     74  63  67 SE7       29.87R
BROKEN BOW     CLEAR     79  65  62 SE6       29.89R
ORD            CLEAR     75  65  70 S3        29.86R
$$

NEZ041-046>049-061>064-073>077-083>087-020300-
SOUTH CENTRAL NEBRASKA

CITY           SKY/WX    TMP DP  RH WIND       PRES   REMARKS
GRAND ISLAND   CLEAR     79  67  66 S7        29.89R
AURORA         PTCLDY    76  67  74 S6        29.89R
HASTINGS       CLEAR     82  65  56 SE9       29.89R
KEARNEY *      CLEAR     79  63  57 CALM      29.89R
YORK           PTCLDY    77  66  69 S10       29.88S
$$

NEZ011>018-030>034-042>045-020300-
NORTHEAST NEBRASKA

CITY           SKY/WX    TMP DP  RH WIND       PRES   REMARKS
NORFOLK        CLEAR     77  68  73 SE8       29.87R
ALBION         CLEAR     76  69  78 SE5       29.88R
BLAIR          MOCLDY    80  65  58 SE12      29.91R
COLUMBUS *     CLEAR     77  63  61 S6        29.87R
FREMONT        PTCLDY    80  67  64 SE8       29.89R
TEKAMAH        PTCLDY    77  72  84 SE9       29.88R
$$

NEZ050>053-065>068-078-088>093-020300-
SOUTHEAST NEBRASKA

CITY           SKY/WX    TMP DP  RH WIND       PRES   REMARKS
LINCOLN        MOCLDY    83  64  52 S14       29.88S
OMAHA EPPLEY   MOCLDY    81  68  64 SE14      29.90R
BEATRICE       MOCLDY    82  65  56 SE13G20   29.91R
FALLS CITY     PTCLDY    77  67  71 SE9       29.94S
NEBRASKA CITY  MOCLDY    80  61  53 S15G21    29.93R
PLATTSMOUTH    CLOUDY    79  65  62 SE13G18   29.92R
$$

NEZ044-045-051>053-067-020300-
OMAHA AREA

CITY           SKY/WX    TMP DP  RH WIND       PRES   REMARKS
OMAHA EPPLEY   MOCLDY    81  68  64 SE14      29.90R
BLAIR          MOCLDY    80  65  58 SE12      29.91R
FREMONT        PTCLDY    80  67  64 SE8       29.89R
OFFUTT AFB     MOCLDY    79  69  71 SE9       29.90R
PLATTSMOUTH    CLOUDY    79  65  62 SE13G18   29.92R
WAHOO          FAIR      74  69  83 SE8       29.88S
$$




USA.gov is the U.S. government's official web portal to all federal, state and local government web resources and services.